Location: Boiro
(42.6475°N, 8.8834°W)
Time: 16:30:04
(UTC+02:00)

Explorer 7 - Visible Passes

Search period start: 26 June 2022 00:00
Search period end: 06 July 2022 00:00
Orbit: 482 x 669 km, 50.3° (Epoch: 25 June)

Date Brightness Start Highest point End Pass type
(mag) Time Alt. Az. Time Alt. Az. Time Alt. Az.
26 Jun 7.1 02:52:04 66° ESE 02:52:04 66° ESE 02:56:21 10° ENE visible
26 Jun 8.3 04:28:11 11° W 04:32:24 40° NNW 04:36:43 10° NE visible
26 Jun 8.9 06:09:32 10° WNW 06:13:40 31° N 06:17:34 10° ENE visible
27 Jun 9.5 01:17:48 11° E 01:17:48 11° E 01:18:06 10° E visible
27 Jun 7.1 02:53:56 68° WSW 02:54:31 84° NNW 02:59:12 10° ENE visible
27 Jun 8.6 04:31:04 10° WNW 04:35:25 35° NNW 04:39:36 10° NE visible
27 Jun 8.8 06:12:31 10° NW 06:16:43 33° N 06:20:40 10° ENE visible
28 Jun 8.8 01:19:28 21° E 01:19:28 21° E 01:21:20 10° ENE visible
28 Jun 7.5 02:55:34 36° W 02:57:23 63° NNW 03:02:02 10° NE visible
28 Jun 8.8 04:34:12 10° WNW 04:38:28 32° N 04:42:33 10° ENE visible
28 Jun 8.6 06:15:25 10° NW 06:19:43 38° NNE 06:23:48 10° E visible
29 Jun 7.7 01:20:44 42° ESE 01:20:44 42° ESE 01:24:22 10° ENE visible
29 Jun 8.0 02:56:48 17° W 03:00:19 49° NNW 03:04:51 10° NE visible
29 Jun 8.9 04:37:17 10° WNW 04:41:30 31° N 04:45:32 10° ENE visible
29 Jun 8.2 06:18:16 10° NW 06:22:43 46° NNE 06:26:53 10° E visible
29 Jun 9.3 23:45:04 11° E 23:45:04 11° E 23:45:22 10° E visible
30 Jun 7.0 01:21:01 43° SW 01:22:32 71° SE 01:27:16 10° ENE visible
30 Jun 8.4 02:58:43 10° W 03:03:17 41° NNW 03:07:41 10° NE visible
30 Jun 8.9 04:40:18 10° WNW 04:44:33 32° N 04:48:36 10° ENE visible
30 Jun 7.7 06:21:05 10° NW 06:25:39 59° NNE 06:29:55 10° ESE visible
30 Jun 8.3 23:41:28 10° S 23:45:14 23° SE 23:49:00 10° E visible
01 Jul 7.2 01:20:28 10° WSW 01:25:20 84° NNW 01:30:07 10° ENE visible
01 Jul 8.7 03:01:50 10° WNW 03:06:16 35° N 03:10:34 10° NE visible
01 Jul 8.8 04:43:16 10° WNW 04:47:34 34° N 04:51:42 10° ENE visible
01 Jul 7.2 06:23:54 10° WNW 06:28:31 81° NNE 06:32:50 10° ESE visible
01 Jul 7.8 23:43:31 10° SSW 23:47:51 34° SE 23:52:12 10° ENE visible
02 Jul 7.6 01:23:22 10° WSW 01:28:11 63° NNW 01:32:56 10° NE visible
02 Jul 8.9 03:04:56 10° WNW 03:09:18 33° N 03:13:30 10° ENE visible
02 Jul 8.5 04:46:09 10° NW 04:50:34 39° NNE 04:54:48 10° E visible
02 Jul 7.0 06:26:44 10° WNW 06:31:20 72° SW 06:35:36 10° SE visible
02 Jul 7.3 23:45:52 10° SW 23:50:33 50° SE 23:55:13 10° ENE visible
03 Jul 8.1 01:26:23 10° W 01:31:06 50° NNW 01:35:44 10° NE visible
03 Jul 9.0 03:08:00 10° WNW 03:12:19 32° N 03:16:29 10° ENE visible
03 Jul 8.1 04:48:59 10° NW 04:53:33 47° NNE 04:57:52 10° E visible
03 Jul 7.1 23:48:27 10° SW 23:53:16 72° SE 23:58:06 10° ENE visible
04 Jul 8.5 01:29:26 10° W 01:34:03 41° NNW 01:38:34 10° NE visible
04 Jul 8.9 03:11:00 10° WNW 03:15:20 32° N 03:19:32 10° ENE visible
04 Jul 7.6 04:51:47 10° NW 04:56:27 60° NNE 05:00:52 10° ESE visible
04 Jul 7.3 23:51:12 10° WSW 23:56:04 84° NNW 00:00:55 10° ENE visible
05 Jul 8.8 01:32:32 10° WNW 01:37:01 36° N 01:41:25 10° ENE visible
05 Jul 8.8 03:13:56 10° WNW 03:18:22 35° N 03:22:37 10° ENE visible
05 Jul 7.1 04:54:35 10° WNW 04:59:19 81° NNE 05:03:46 10° ESE visible
